Location: Newark
(27.9675°N, 86.8869°E)
Time: 13:41:49
(UTC+00:00)

Tiros 1 - Visible Passes

Search period start: 19 October 2019 00:00
Search period end: 29 October 2019 00:00
Orbit: 630 x 664 km, 48.4° (Epoch: 18 October)

Date Brightness Start Highest point End Pass type
(mag) Time Alt. Az. Time Alt. Az. Time Alt. Az.
24 Oct 9.6 23:05:04 10° N 23:07:39 14° NNE 23:10:15 10° ENE visible
25 Oct 8.9 23:30:07 10° NNW 23:34:14 27° NE 23:38:18 10° E visible
26 Oct 9.6 22:16:10 12° N 22:17:33 13° NNE 22:19:55 10° NE visible
26 Oct 7.7 23:55:44 10° NW 00:00:30 62° NE 00:05:15 10° ESE visible
27 Oct 9.0 22:41:30 16° N 22:44:09 25° NNE 22:48:07 10° E visible
28 Oct 10.2 21:29:13 11° NE 21:29:13 11° NE 21:29:32 10° NE visible
28 Oct 7.7 23:06:55 17° NW 23:10:27 56° NE 23:15:10 10° ESE visible
